Total_Precipitation_Accumulation
0.39 0.38 0.39 0.38 0.30 0.26 0.31 0.38 0.66 0.95 1.29 1.59 1.66 1.69 1.76 1.90 1.81 1.58 1.41 1.26 1.13 1.09 1.12 1.07 1.01 0.97 0.94 0.98 0.94 0.94 0.99 1.01 0.99 0.96 0.94 0.93 0.85 0.75 0.66 0.57 0.52 0.49 0.44 0.41
0.38 0.34 0.42 0.39 0.37 0.37 0.42 0.49 0.70 1.06 1.48 1.70 1.70 1.67 1.74 1.81 1.72 1.54 1.31 1.17 1.09 1.07 1.13 1.08 1.01 0.92 0.85 0.90 0.92 0.94 0.95 0.93 0.92 0.92 0.92 0.87 0.81 0.77 0.68 0.58 0.49 0.45 0.39 0.37
0.57 0.38 0.56 0.79 0.59 0.58 0.64 0.65 0.83 1.22 1.45 1.51 1.61 1.61 1.64 1.73 1.80 1.68 1.44 1.33 1.33 1.35 1.34 1.24 1.10 0.99 0.93 0.94 0.96 0.98 1.01 0.95 0.94 0.93 0.87 0.80 0.67 0.64 0.63 0.59 0.48 0.42 0.37 0.35
0.57 0.69 1.12 1.00 0.54 0.58 0.67 0.71 0.76 0.89 1.05 1.21 1.32 1.36 1.50 1.67 1.79 1.76 1.66 1.61 1.62 1.58 1.44 1.31 1.20 1.13 1.06 0.99 1.02 1.07 1.02 0.94 0.85 0.82 0.78 0.72 0.68 0.61 0.56 0.53 0.48 0.45 0.40 0.37
0.78 1.04 1.21 0.97 0.58 0.51 0.74 0.90 0.72 0.76 0.78 0.81 0.84 1.00 1.35 1.52 1.58 1.60 1.64 1.60 1.51 1.43 1.34 1.27 1.18 1.12 1.03 0.98 0.94 0.93 0.88 0.81 0.72 0.70 0.74 0.74 0.68 0.63 0.58 0.52 0.47 0.41 0.39 0.38
0.86 1.14 1.38 1.16 0.53 0.33 0.62 1.21 0.87 0.77 0.77 0.79 0.89 1.10 1.20 1.16 1.15 1.19 1.24 1.27 1.28 1.25 1.18 1.13 1.05 0.95 0.88 0.87 0.83 0.79 0.75 0.73 0.64 0.61 0.65 0.72 0.63 0.59 0.54 0.49 0.45 0.38 0.37 0.39
0.84 1.07 1.21 0.67 0.36 0.46 1.09 1.43 0.97 0.82 0.80 0.87 1.00 0.97 0.79 0.75 0.83 0.94 1.01 1.05 1.08 1.13 1.13 1.02 0.86 0.79 0.80 0.78 0.74 0.60 0.57 0.62 0.62 0.59 0.58 0.59 0.57 0.57 0.54 0.49 0.48 0.46 0.44 0.45
0.86 1.15 1.27 0.52 0.39 0.75 0.92 0.73 0.72 0.74 0.72 0.71 0.66 0.57 0.56 0.59 0.63 0.67 0.78 0.90 0.89 0.92 0.90 0.82 0.76 0.76 0.77 0.73 0.61 0.51 0.54 0.62 0.63 0.59 0.49 0.49 0.57 0.59 0.54 0.50 0.47 0.47 0.47 0.48
0.89 1.05 0.78 0.38 0.39 0.45 0.46 0.53 0.55 0.54 0.51 0.46 0.44 0.42 0.42 0.50 0.55 0.58 0.62 0.71 0.73 0.71 0.73 0.76 0.77 0.79 0.76 0.68 0.57 0.54 0.56 0.59 0.59 0.55 0.51 0.51 0.55 0.57 0.56 0.52 0.44 0.42 0.44 0.47
0.59 0.62 0.40 0.30 0.27 0.28 0.31 0.39 0.41 0.44 0.49 0.42 0.42 0.41 0.40 0.44 0.51 0.58 0.60 0.60 0.62 0.64 0.64 0.68 0.68 0.67 0.63 0.54 0.53 0.57 0.60 0.58 0.57 0.58 0.57 0.52 0.47 0.45 0.46 0.45 0.40 0.38 0.39 0.39
0.56 0.46 0.38 0.37 0.29 0.24 0.26 0.31 0.35 0.41 0.49 0.48 0.44 0.48 0.44 0.43 0.48 0.55 0.59 0.61 0.62 0.63 0.63 0.59 0.57 0.53 0.49 0.48 0.50 0.56 0.56 0.52 0.52 0.54 0.53 0.50 0.41 0.35 0.33 0.28 0.21 0.22 0.24 0.24
0.54 0.41 0.42 0.39 0.28 0.25 0.29 0.33 0.34 0.39 0.49 0.45 0.42 0.47 0.49 0.49 0.48 0.49 0.53 0.55 0.58 0.54 0.53 0.52 0.47 0.45 0.43 0.42 0.42 0.50 0.52 0.46 0.42 0.42 0.41 0.37 0.34 0.30 0.22 0.15 0.12 0.09 0.09 0.10
0.26 0.24 0.25 0.26 0.28 0.33 0.37 0.37 0.41 0.45 0.41 0.34 0.39 0.44 0.46 0.52 0.49 0.47 0.46 0.46 0.48 0.44 0.42 0.42 0.41 0.43 0.40 0.35 0.37 0.43 0.45 0.40 0.34 0.30 0.32 0.30 0.27 0.29 0.30 0.18 0.09 0.06 0.05 0.07
0.24 0.29 0.37 0.40 0.45 0.45 0.41 0.34 0.34 0.34 0.32 0.30 0.35 0.41 0.41 0.44 0.41 0.41 0.45 0.42 0.37 0.36 0.35 0.35 0.37 0.37 0.33 0.29 0.32 0.34 0.31 0.24 0.22 0.24 0.24 0.21 0.20 0.20 0.23 0.26 0.24 0.19 0.10 0.06
0.33 0.37 0.43 0.40 0.39 0.35 0.30 0.26 0.26 0.28 0.29 0.32 0.33 0.36 0.37 0.39 0.38 0.36 0.36 0.33 0.31 0.33 0.32 0.29 0.27 0.31 0.29 0.28 0.28 0.27 0.24 0.20 0.17 0.17 0.17 0.16 0.15 0.13 0.13 0.15 0.22 0.26 0.22 0.14
0.27 0.25 0.27 0.27 0.27 0.25 0.24 0.24 0.25 0.26 0.26 0.29 0.30 0.32 0.32 0.30 0.29 0.26 0.24 0.26 0.33 0.37 0.35 0.29 0.24 0.24 0.24 0.28 0.30 0.27 0.21 0.16 0.12 0.11 0.11 0.11 0.09 0.09 0.10 0.12 0.16 0.21 0.20 0.15
0.24 0.24 0.23 0.20 0.18 0.18 0.17 0.17 0.16 0.17 0.18 0.22 0.22 0.19 0.20 0.20 0.22 0.23 0.23 0.24 0.28 0.29 0.28 0.26 0.21 0.17 0.19 0.24 0.26 0.20 0.13 0.08 0.06 0.05 0.07 0.06 0.06 0.05 0.07 0.09 0.12 0.14 0.12 0.09
0.22 0.18 0.16 0.15 0.13 0.11 0.11 0.10 0.10 0.12 0.13 0.14 0.13 0.14 0.15 0.17 0.20 0.20 0.21 0.22 0.24 0.24 0.22 0.19 0.17 0.16 0.16 0.17 0.18 0.15 0.10 0.08 0.04 0.03 0.03 0.04 0.04 0.05 0.05 0.06 0.08 0.09 0.08 0.08
0.16 0.10 0.08 0.09 0.08 0.08 0.08 0.07 0.07 0.07 0.08 0.08 0.09 0.11 0.13 0.14 0.15 0.15 0.17 0.21 0.24 0.24 0.20 0.14 0.12 0.13 0.12 0.11 0.10 0.08 0.06 0.05 0.05 0.04 0.04 0.03 0.03 0.04 0.03 0.03 0.04 0.05 0.05 0.06
0.11 0.06 0.06 0.07 0.06 0.06 0.06 0.04 0.04 0.05 0.05 0.06 0.07 0.08 0.09 0.10 0.09 0.12 0.16 0.21 0.22 0.17 0.13 0.10 0.09 0.08 0.07 0.06 0.06 0.04 0.03 0.03 0.03 0.04 0.04 0.04 0.03 0.03 0.02 0.02 0.03 0.04 0.05 0.06
0.07 0.07 0.07 0.05 0.05 0.05 0.05 0.03 0.03 0.04 0.04 0.05 0.05 0.06 0.07 0.07 0.08 0.11 0.16 0.21 0.19 0.14 0.11 0.09 0.08 0.06 0.05 0.04 0.03 0.03 0.02 0.02 0.02 0.02 0.02 0.02 0.02 0.02 0.02 0.02 0.02 0.04 0.05 0.06
0.06 0.06 0.06 0.06 0.05 0.05 0.05 0.04 0.04 0.04 0.04 0.04 0.05 0.05 0.07 0.09 0.09 0.11 0.12 0.13 0.12 0.08 0.07 0.06 0.06 0.05 0.03 0.02 0.02 0.01 0.02 0.01 0.01 0.01 0.01 0.02 0.02 0.02 0.03 0.04 0.04 0.03 0.04 0.04
0.06 0.05 0.06 0.07 0.07 0.06 0.05 0.07 0.06 0.04 0.04 0.05 0.05 0.05 0.07 0.09 0.09 0.08 0.08 0.06 0.05 0.05 0.06 0.06 0.05 0.03 0.02 0.02 0.01 0.01 0.01 0.01 0.01 0.01 0.01 0.02 0.02 0.02 0.02 0.03 0.03 0.03 0.04 0.03
0.08 0.06 0.06 0.07 0.08 0.10 0.09 0.07 0.05 0.05 0.05 0.04 0.04 0.04 0.04 0.06 0.07 0.06 0.05 0.04 0.04 0.03 0.03 0.04 0.04 0.03 0.02 0.01 0.01 0.01 0.01 0.01 0.01 0.01 0.01 0.01 0.02 0.02 0.02 0.03 0.03 0.03 0.03 0.03
0.10 0.09 0.09 0.09 0.11 0.12 0.08 0.06 0.04 0.04 0.04 0.03 0.03 0.03 0.02 0.03 0.03 0.03 0.03 0.03 0.04 0.03 0.02 0.02 0.02 0.02 0.01 0.01 0.01 0.01 0.01 0.01 0.01 0.01 0.01 0.01 0.01 0.01 0.02 0.03 0.03 0.03 0.02 0.03
0.18 0.14 0.13 0.13 0.10 0.07 0.05 0.05 0.04 0.04 0.04 0.04 0.03 0.02 0.02 0.03 0.03 0.03 0.03 0.03 0.03 0.03 0.02 0.01 0.01 0.01 0.01 0.01 0.01 0.01 0.01 0.01 0.01 0.01 0.01 0.01 0.01 0.01 0.02 0.03 0.03 0.02 0.03 0.03
0.35 0.26 0.20 0.16 0.12 0.07 0.06 0.06 0.05 0.03 0.03 0.04 0.03 0.03 0.03 0.04 0.04 0.03 0.02 0.02 0.02 0.02 0.01 0.01 0.01 0.01 0.01 0.01 0.01 0.01 0.01 0.01 0.01 0.01 0.01 0.01 0.02 0.02 0.02 0.02 0.02 0.02 0.03 0.03